WB5MTX Weather Reports


Display with metric or nautical units.
time (UTC)temp
F
wind
direction
speed
MPH
gust
MPH
rain 1hr
in
rain 24hr
in
rain mn
in
humidity
%
barometer
mb
20210921143738 73 352 0.0 8.0 0.00 0.03 0.03 65 1018.3
20210921141738 73 17 0.0 8.0 0.00 0.03 0.03 64 1017.9
20210921140738 73 335 0.0 5.0 0.00 0.03 0.03 64 1017.7
20210921135737 74 315 1.0 8.0 0.00 0.03 0.03 64 1017.4
20210921132737 76 357 0.0 9.0 0.00 0.03 0.03 67 1016.6
20210921123734 77 206 0.0 0.0 0.00 0.03 0.03 80 1015.5
20210921114733 77 206 0.0 0.0 0.00 0.03 0.03 77 1013.8
20210921113732 77 206 0.0 0.0 0.00 0.03 0.03 77 1013.6
20210921112733 78 206 0.0 0.0 0.00 0.03 0.03 77 1013.7
20210921111732 78 206 0.0 0.0 0.00 0.03 0.03 78 1013.5
20210921104732 78 206 0.0 0.0 0.00 0.03 0.03 76 1013.4
20210921103731 78 206 0.0 0.0 0.00 0.03 0.03 76 1013.1
20210921093729 80 206 0.0 0.0 0.03 0.03 0.03 73 1011.9
20210921092730 81 206 0.0 0.0 0.03 0.03 0.03 72 1011.6
20210921085728 82 204 0.0 5.0 0.00 0.00 0.00 67 1011.6
20210921082727 82 190 0.0 2.0 0.00 0.00 0.00 65 1011.7
20210921081727 82 190 0.0 3.0 0.00 0.00 0.00 65 1011.6
20210921074725 83 196 0.0 9.0 0.00 0.00 0.00 64 1011.5
20210921073725 83 174 0.0 3.0 0.00 0.00 0.00 63 1011.4
20210921072725 83 211 0.0 6.0 0.00 0.00 0.00 63 1011.3
20210921065724 84 183 4.0 9.0 0.00 0.00 0.00 62 1011.2
20210921052722 86 168 0.0 8.0 0.00 0.00 0.00 56 1010.8
20210921050721 86 166 0.0 5.0 0.00 0.00 0.00 55 1010.6
20210921044724 86 174 0.0 5.0 0.00 0.00 0.00 54 1010.4
20210921042722 87 173 0.0 3.0 0.00 0.00 0.00 54 1010.2
20210921040721 87 204 0.0 6.0 0.00 0.00 0.00 53 1010.0
20210921035722 87 187 0.0 0.0 0.00 0.00 0.00 52 1010.1
20210921031720 88 192 0.0 3.0 0.00 0.00 0.00 49 1009.9
20210921030719 89 194 0.0 2.0 0.00 0.00 0.00 48 1009.8
20210921023718 89 193 0.0 3.0 0.00 0.00 0.00 48 1009.2
20210921022719 90 194 0.0 0.0 0.00 0.00 0.00 49 1009.1
20210921021718 90 194 0.0 0.0 0.00 0.00 0.00 48 1009.0
20210921020718 91 194 0.0 0.0 0.00 0.00 0.00 47 1009.0
20210921015717 91 194 0.0 2.0 0.00 0.00 0.00 47 1008.8
20210921014718 91 194 0.0 0.0 0.00 0.00 0.00 46 1008.5
20210921001744 95 178 0.0 2.0 0.00 0.00 0.00 43 1007.5
20210921000744 96 178 0.0 0.0 0.00 0.00 0.00 39 1007.4
20210920233742 97 201 0.0 2.0 0.00 0.00 0.00 37 1007.2
20210920232743 98 173 0.0 3.0 0.00 0.00 0.00 37 1007.3
20210920231742 98 173 0.0 0.0 0.00 0.00 0.00 36 1007.1
20210920221740 100 168 0.0 8.0 0.00 0.00 0.00 36 1007.0
20210920213739 100 187 0.0 3.0 0.00 0.00 0.00 34 1007.4
20210920210738 101 181 0.0 3.0 0.00 0.00 0.00 34 1007.5
20210920205737 101 209 0.0 5.0 0.00 0.00 0.00 34 1007.6
20210920204737 102 150 0.0 9.0 0.00 0.00 0.00 35 1007.8
20210920203737 102 144 3.0 11.0 0.00 0.00 0.00 34 1007.8
20210920202737 102 190 0.0 5.0 0.00 0.00 0.00 35 1007.8
20210920201737 102 182 0.0 6.0 0.00 0.00 0.00 36 1008.1
20210920195736 103 216 0.0 8.0 0.00 0.00 0.00 35 1008.4
20210920190734 102 196 0.0 8.0 0.00 0.00 0.00 37 1008.9
20210920184734 101 215 1.0 9.0 0.00 0.00 0.00 37 1009.3
20210920182733 100 203 0.0 8.0 0.00 0.00 0.00 40 1009.6
20210920180733 99 175 0.0 6.0 0.00 0.00 0.00 44 1009.8
20210920173732 98 221 0.0 9.0 0.00 0.00 0.00 46 1010.2
20210920172732 97 169 1.0 6.0 0.00 0.00 0.00 46 1010.3
20210920170730 95 204 0.0 6.0 0.00 0.00 0.00 50 1010.3
20210920163730 92 217 0.0 9.0 0.00 0.00 0.00 53 1010.5
20210920153728 86 222 0.0 11.0 0.00 0.00 0.00 64 1010.7
20210920152728 85 234 0.0 12.0 0.00 0.00 0.00 65 1010.7
20210920151728 84 204 3.0 8.0 0.00 0.00 0.00 67 1010.5
20210920145726 82 186 6.0 9.0 0.00 0.00 0.00 71 1010.4
20210920144726 81 180 0.0 9.0 0.00 0.00 0.00 73 1010.4